Content
SEND FEEDBACK

Daily
Averages
Monthly
Summary
Australia

DEAGON, QUEENSLAND


Home > Oceania > Australia > Queensland
Elevation: 3 feet     Latitude: 27 19S     Longitude: 153 04E

WEATHER
 
SELECT A DAY
Number of Records: 299,710;   Date Range: 7/1/96 - 10/23/14
 
SHARE

PRINT THIS DATA

[ ← Previous Day ]
WEATHER ALMANAC - FEBRUARY 13, 2013
[ Next Day → ]
[ °C ]   °F
Weather ElementAverageHighLow
Temperature73.2 °F80 °F (3:00 pm)66.2 °F (5:00 am)
Dewpoint62.5 °F66.2 °F (10:30 am)57.2 °F (4:00 pm)
Humidity68.3 %88 % (5:00 am)38 % (4:00 pm)
Barometer30.05 in30.10 in (10:00 am)29.98 in (2:30 am)
Wind Speed10.5 mph17.3 mph (1:50 pm)
Wind Gust29.9 mph (1:50 pm)
Weather ElementAverage
Visibility7.5 mi
Wind DirectionSSE (161.3 °)

Weather ElementTotal
Precipitation---
Cooling Degree Days8.1 (Base 65)
Growing Degree Days23.1 (Base 50)
Averaged from 67 records on February 13, 2013
WEATHER CONDITIONS BREAKOUT
WIND DIRECTION BREAKOUT
WEATHER BY HOUR - FEBRUARY 13, 2013
[ °C ]   °F
Local TimeTemperatureDewpointHumidityBarometerVisibilityWind DirectionWind SpeedGust SpeedPrecipitationEventsConditions
12:00 AM71.6 °F62.6 °F73 %30.04 in6.2 miSSE (150°)5.8 mphPartly Cloudy
12:30 AM71.6 °F62.6 °F73 %30.01 in6.2 miSouth (170°)5.8 mphPartly Cloudy
1:00 AM71.0 °F63.0 °F68 %30.02 inSouth (180°)4.6 mph
1:00 AM71.6 °F62.6 °F73 %30.01 in6.2 miSouth (180°)4.6 mphPartly Cloudy
1:30 AM69.8 °F62.6 °F78 %30.01 in6.2 miSouth (190°)5.8 mphScattered Clouds
2:00 AM69.8 °F62.6 °F78 %30.01 in6.2 miSouth (190°)6.9 mphPartly Cloudy
2:30 AM69.8 °F62.6 °F78 %29.98 in6.2 miSouth (180°)6.9 mphPartly Cloudy
3:00 AM68.0 °F62.6 °F83 %30.01 in6.2 miSSW (200°)6.9 mphPartly Cloudy
3:00 AM69.0 °F63.0 °F74 %30.01 in19.0 miSSW (200°)6.9 mphPartly Cloudy
3:30 AM69.8 °F62.6 °F78 %30.01 in6.2 miSSW (200°)6.9 mphPartly Cloudy
4:00 AM69.0 °F63.0 °F74 %30.01 inSSW (200°)6.9 mph
4:00 AM69.8 °F62.6 °F78 %30.01 in6.2 miSSW (200°)6.9 mphScattered Clouds
4:30 AM68.0 °F62.6 °F83 %30.01 in6.2 miSouth (190°)6.9 mphPartly Cloudy
5:00 AM66.2 °F62.6 °F88 %30.01 in6.2 miSSW (210°)8.1 mphPartly Cloudy
5:30 AM66.2 °F62.6 °F88 %30.01 in6.2 miSSW (200°)8.1 mphPartly Cloudy
6:00 AM68.0 °F62.6 °F83 %30.01 in6.2 miSSW (200°)9.2 mphPartly Cloudy
6:00 AM68.0 °F62.0 °F75 %30.03 in19.0 miSSW (200°)9.2 mphPartly Cloudy
6:30 AM69.8 °F62.6 °F78 %30.04 in6.2 miSSW (210°)9.2 mphPartly Cloudy
7:00 AM72.0 °F63.0 °F66 %30.06 inSSW (210°)9.2 mph
7:00 AM71.6 °F62.6 °F73 %30.04 in6.2 miSSW (210°)9.2 mphPartly Cloudy
7:30 AM75.2 °F64.4 °F69 %30.06 in6.2 miSouth (190°)9.2 mphPartly Cloudy
8:00 AM71.6 °F64.4 °F78 %30.06 in6.2 miSouth (170°)11.5 mphRainLight Rain Showers
8:30 AM75.2 °F64.4 °F69 %30.06 in6.2 miSouth (190°)11.5 mphScattered Clouds
9:00 AM77.0 °F64.4 °F65 %30.06 in6.2 miSouth (170°)10.4 mphMostly Cloudy
9:00 AM76.0 °F65.0 °F60 %30.09 in19.0 miSouth (170°)10.4 mphMostly Cloudy
9:30 AM75.2 °F64.4 °F69 %30.09 in6.2 miSE (140°)13.8 mphMostly Cloudy
10:00 AM76.0 °F65.0 °F60 %30.10 inSE (140°)11.5 mph
10:00 AM77.0 °F64.4 °F65 %30.09 in6.2 miSE (140°)11.5 mphMostly Cloudy
10:30 AM71.6 °F66.2 °F83 %30.09 in5.6 miSSE (160°)12.7 mphRainLight Rain Showers
10:38 AM71.6 °F66.2 °F83 %30.09 in6.2 miSSE (160°)12.7 mphRainLight Rain Showers
10:41 AM71.6 °F66.2 °F83 %30.09 in2.5 miSSE (160°)12.7 mphRainLight Rain Showers
10:52 AM69.8 °F66.2 °F88 %30.09 in3.7 miSSE (160°)10.4 mphRainLight Rain Showers
11:00 AM69.8 °F66.2 °F88 %30.09 in6.2 miSouth (170°)10.4 mphRainLight Rain Showers
11:04 AM69.8 °F66.2 °F88 %30.09 in6.2 miSouth (170°)10.4 mphRainLight Rain Showers
11:30 AM73.4 °F64.4 °F73 %30.09 in6.2 miSE (140°)13.8 mphMostly Cloudy
12:00 PM74.0 °F65.0 °F67 %30.09 in16.0 miESE (120°)12.7 mphRainLight Rain Showers
12:00 PM73.4 °F64.4 °F73 %30.06 in6.2 miESE (120°)12.7 mphRainLight Rain Showers
12:30 PM73.4 °F64.4 °F73 %30.06 in6.2 miSE (130°)16.1 mphMostly Cloudy
1:00 PM75.0 °F65.0 °F62 %30.07 inESE (120°)12.7 mph
1:00 PM75.2 °F64.4 °F69 %30.06 in6.2 miESE (120°)12.7 mphMostly Cloudy
1:30 PM78.8 °F59.0 °F51 %30.04 in6.2 miSE (140°)15.0 mphMostly Cloudy
1:50 PM78.8 °F60.8 °F54 %30.04 in6.2 miSE (130°)17.3 mph29.9 mphMostly Cloudy
2:00 PM78.8 °F59.0 °F51 %30.04 in6.2 miSE (130°)17.3 mphMostly Cloudy
2:30 PM78.8 °F59.0 °F51 %30.04 in6.2 miSE (130°)16.1 mphMostly Cloudy
3:00 PM80.0 °F61.0 °F41 %30.04 in19.0 miESE (120°)15.0 mphMostly Cloudy
3:00 PM78.8 °F60.8 °F54 %30.04 in6.2 miESE (120°)15.0 mphMostly Cloudy
3:30 PM78.8 °F60.8 °F54 %30.04 in6.2 miSSE (150°)13.8 mphMostly Cloudy
4:00 PM79.0 °F58.0 °F38 %30.04 inSE (140°)13.8 mph
4:00 PM78.8 °F57.2 °F47 %30.04 in6.2 miSE (140°)13.8 mphMostly Cloudy
4:30 PM78.8 °F60.8 °F54 %30.04 in6.2 miSE (130°)13.8 mphMostly Cloudy
5:00 PM77.0 °F62.6 °F61 %30.04 in6.2 miSE (130°)11.5 mphMostly Cloudy
5:30 PM77.0 °F62.6 °F61 %30.04 in6.2 miSE (130°)11.5 mphMostly Cloudy
6:00 PM76.0 °F62.0 °F52 %30.05 in19.0 miSE (130°)12.7 mphPartly Cloudy
6:00 PM75.2 °F62.6 °F65 %30.04 in6.2 miSE (130°)12.7 mphMostly Cloudy
6:30 PM75.2 °F62.6 °F65 %30.04 in6.2 miSE (130°)12.7 mph24.2 mphMostly Cloudy
7:00 PM75.2 °F62.6 °F65 %30.06 in6.2 miSE (130°)12.7 mphMostly Cloudy
7:30 PM75.2 °F62.6 °F65 %30.06 in6.2 miSE (140°)10.4 mphMostly Cloudy
8:00 PM75.2 °F60.8 °F61 %30.06 in6.2 miSSE (150°)10.4 mphMostly Cloudy
8:30 PM73.4 °F60.8 °F65 %30.06 in6.2 miSSE (150°)9.2 mphScattered Clouds
9:00 PM73.4 °F60.8 °F65 %30.09 in6.2 miSouth (170°)9.2 mphScattered Clouds
9:00 PM73.0 °F61.0 °F57 %30.09 in19.0 miSouth (170°)9.2 mphPartly Cloudy
9:30 PM71.6 °F60.8 °F69 %30.09 in6.2 miSSE (160°)8.1 mphScattered Clouds
10:00 PM72.0 °F60.0 °F56 %30.10 inSouth (170°)9.2 mph
10:00 PM71.6 °F59.0 °F64 %30.09 in6.2 miSouth (170°)9.2 mphScattered Clouds
10:30 PM71.6 °F60.8 °F69 %30.09 in6.2 miSouth (180°)6.9 mphScattered Clouds
11:00 PM71.6 °F59.0 °F64 %30.09 in6.2 miSSE (160°)6.9 mphScattered Clouds
11:30 PM69.8 °F59.0 °F68 %30.09 in6.2 miSouth (170°)8.1 mphScattered Clouds
Hourly data recorded from YBBN, located miles away from Deagon, Queensland







STORIES FROM OUR PARTNERS